Location: Castelbiague
(43.0361°N, 0.9246°E)
Time: 14:18:01
(UTC+00:00)

FALCON 9 DEB - Pass Details

Date: 17 June 2021
Orbit: 421 x 432 km, 53.0° (Epoch: 04 August)

Event Time Altitude Azimuth Distance (km) Brightness Sun altitude
Rises 20:30:18 0° 220° (SW) 2,390 6.9 -8.3°
Reaches altitude 10° 20:32:26 10° 215° (SW) 1,525 5.8 -8.6°
Maximum altitude 20:35:46 50° 139° (SE) 552 3.2 -9.0°
Drops below altitude 10° 20:39:06 10° 63° (ENE) 1,528 5.7 -9.4°
Sets 20:41:14 0° 58° (ENE) 2,395 6.8 -9.7°
